Погода в Мацуяме

Япония     36°02′35″N   139°24′09″E
темп.,
°C
ветер,
м/с
пор.,
м/с
влажн.,
%
обл.,
%
осадки,
мм/ч
давл.,
гПа
погр.,
м
20 июня, вс
вс2000:00+20сз2392100 5.2 1000232
03:00+20с3491100 8.8 999309
06:00+20ссз3690100 0.1 999363
09:00+23с467285 0.1 999598
12:00+29ссв454749 0.0 9971440
15:00+31в343874 0.0 9962244
18:00+25ю346683 2.0 999207
21:00+24вюв3370100 5.9 1001218
21 июня, пн
пн2100:00+22ююв577825 2.3 1002343
03:00+22ю127563 2.6 1003212
06:00+22ссв116714 0.0 1004319
09:00+25ю125198 0.0 1005964
12:00+29ююв433693 0.0 10041705
15:00+29ююв6338100 0.0 10042163
18:00+27ююв6652100 0.0 10051119
21:00+24юв5565100 0.0 1006803
22 июня, вт
вт2200:00+24ююв3367100 0.0 1006690
03:00+23юв2370100 0.0 1006656
06:00+23вюв2271100 0.0 1007683
09:00+25юв336095 0.3 10081123
12:00+27ююв4452100 0.4 10081531
15:00+27ю6650100 0.8 10071774
18:00+26ю6755100 0.0 10091213
21:00+23ю5765100 0.0 1010851
23 июня, ср
ср2300:00+23ююв4566100 0.0 1010880
03:00+22вюв2367100 0.2 1010722
06:00+22св3366100 0.1 1011723
09:00+25св345185 0.1 10111465
12:00+26всв5450100 0.1 10101744
15:00+25в5554100 0.4 10101349
18:00+24в5554100 0.2 10111161
21:00+22в4465100 0.2 1012896
24 июня, чт
чт2400:00+21св3368100 0.0 1012739
03:00+20ссв3471100 0.0 1011548
06:00+21ссв2468100 0.0 1012588
09:00+24св3354100 0.0 10111213
12:00+26вюв4350100 0.0 10101650
15:00+26в3350100 0.1 10101395
18:00+25в545317 0.0 10111243
21:00+22в45684 0.0 1012580